Location: Widewater Village at Stafford
(38.4893°N, 77.3783°W)
Time: 12:13:08
(UTC+00:00)

BlueWalker 3 - Pass Details

Date: 10 December 2022
Orbit: 499 x 517 km, 53.2° (Epoch: 29 January)

Event Time Altitude Azimuth Distance (km) Brightness Sun altitude
Rises 23:08:29 0° 314° (NW) 2,625 6.0 -15.2°
Reaches altitude 10° 23:10:43 10° 319° (NW) 1,732 5.0 -15.6°
Maximum altitude 23:14:35 56° 38° (NE) 607 2.0 -16.3°
Enters shadow 23:16:07 32° 102° (ESE) 887 2.7 -16.6°
